Location: Stull Observatory
(42.2506°N, 77.7903°W)
Time: 17:16:02
(UTC-05:00)

Daily predictions for brighter satellites

Satellite Brightness Start Highest point End
(mag) Time Altitude Azimuth Time Altitude Azimuth Time Altitude Azimuth
BREEZE-M DEB (TANK) 3.2 17:08:12 10° WNW 17:10:09 29° N 17:13:12 10° NE
Okean 1 Rocket 3.3 17:06:15 10° N 17:10:45 79° W 17:15:13 10° S
USA 215 3.4 17:06:17 10° SE 17:12:51 87° SW 17:19:26 10° NW
CSL-04 Debris 4.3 17:09:35 10° SSE 17:14:50 55° ENE 17:20:05 10° N
Cosmos 1634 Rocket 4.0 17:10:55 10° S 17:17:06 86° E 17:23:24 10° N
Hubble Space Telescope 3.4 17:16:36 10° SSW 17:17:59 11° S 17:19:21 10° SSE
USA 161 2.9 17:19:24 10° N 17:22:05 40° WNW 17:24:53 10° SW
Cosmos 1378 Rocket 4.2 17:19:42 10° SSW 17:24:05 61° W 17:28:31 10° N
Cosmos 1655 Rocket 4.1 17:21:30 10° N 17:27:50 62° E 17:34:09 10° SSE
NOSS 2-3 (C) 4.2 17:28:38 10° SW 17:33:16 65° NW 17:38:45 10° NNE
Meteor 1-12 Rocket 4.2 17:28:44 10° N 17:34:26 76° E 17:40:11 10° SSE
Meteor 1-28 Rocket 3.3 17:31:58 10° NNE 17:35:40 56° E 17:39:21 10° S
CSL-04 Rocket 3.7 17:30:45 10° SSE 17:36:09 88° WSW 17:41:42 10° NNW
Aureole 1 Rocket 4.1 17:32:00 10° NNW 17:37:52 89° ENE 17:45:26 10° SSE
Cosmos 1898 Rocket 4.1 17:32:54 10° SSW 17:38:02 60° WNW 17:43:15 10° NNE
FENGYUN 3A 4.4 17:35:17 10° ESE 17:39:48 28° ENE 17:44:18 10° N
Cosmos 1743 2.8 17:36:17 10° N 17:40:07 56° E 17:43:56 10° SSE
Cosmos 1818 4.5 17:34:57 10° WSW 17:40:09 45° NW 17:45:23 10° NNE
Ariane Rocket 3.0 17:35:08 10° SSE 17:40:12 89° ENE 17:45:17 10° NNW
Cosmos 2026 Rocket 4.3 17:34:41 10° N 17:41:05 77° W 17:47:22 10° S
Cosmos 2266 Rocket 4.4 17:36:56 10° N 17:42:32 38° ENE 17:48:12 10° SE
SKYMED 2 4.4 17:38:52 10° NNE 17:42:44 31° E 17:46:35 10° SSE
Cosmos 1697 Rocket 4.2 17:39:22 10° SE 17:42:49 17° E 17:44:23 15° E
CENTAUR R/B 4.3 17:38:09 10° NNW 17:43:36 21° NNE 17:47:34 15° ENE
Cosmos 389 Rocket 2.3 17:40:47 10° N 17:44:17 77° ENE 17:47:44 10° SSE
CZ-2C R/B 3.8 17:41:52 10° NNE 17:46:30 60° E 17:51:10 10° S
Cosmos 2082 4.2 17:42:25 10° N 17:47:34 36° ENE 17:52:41 10° ESE
METEOR-M 4.2 17:43:10 10° SSE 17:48:19 53° ENE 17:53:31 10° N
Cosmos 1125 Rocket 4.2 17:45:05 10° SSE 17:49:46 33° E 17:53:17 16° NE
SMAP 3.3 17:46:08 10° S 17:50:46 75° WSW 17:55:26 10° NNW
IRS-1A Rocket 4.2 17:45:34 10° SSE 17:51:08 70° ENE 17:56:39 10° N
Cosmos 1937 Rocket 4.0 17:47:35 10° SSW 17:52:43 61° WNW 17:57:50 10° NNE
AQUARIUS 4.5 17:48:52 10° S 17:53:20 71° WSW 17:57:50 10° NNW
Cosmos 2298 Rocket 4.5 17:49:25 10° SSW 17:54:41 64° WNW 17:59:58 10° NNE
Atlas Centaur 2 3.9 17:51:05 10° SW 17:54:45 19° S 17:57:54 10° SE
Cosmos 1048 Rocket 4.5 17:53:37 10° N 17:58:40 39° ENE 18:03:41 10° SE
Landsat 4 3.7 17:58:14 12° NNE 18:01:40 59° ESE 18:05:25 10° S
USA 238 DEB 3.8 17:54:39 10° NNW 18:01:44 67° NE 18:08:53 10° SE
USA 238 3.8 17:54:45 10° NNW 18:01:51 66° NE 18:08:59 10° SE
Cosmos 2227 Rocket 2.2 17:56:21 10° NNW 18:01:56 57° ENE 18:07:29 10° SE
ALOS 2.6 17:57:47 10° SE 18:02:08 41° ENE 18:06:31 10° N
DELTA 2 R/B (1) 3.8 17:57:24 10° WSW 18:02:54 62° S 18:06:33 21° E
Cosmos 2219 4.0 17:58:57 10° NNW 18:04:25 54° WSW 18:09:52 10° S
Cosmos 1271 Rocket 2.9 18:03:58 10° NNW 18:07:45 70° W 18:11:33 10° S
Cosmos 1455 Rocket 3.1 18:05:22 10° N 18:09:49 81° W 18:14:12 10° S
Meteor 2-9 Rocket 4.0 18:07:17 10° N 18:12:50 72° E 18:18:12 10° SSE
Cosmos 1544 Rocket 3.9 18:09:19 10° NNW 18:13:39 67° W 18:17:57 10° S
YAOGAN 1 2.8 18:12:56 10° S 18:17:14 73° WSW 18:21:35 10° NNW
ISS -4.0 18:16:00 10° NW 18:19:17 80° NNE 18:19:54 56° ESE
ERS-2 2.0 18:16:20 10° SSE 18:19:59 73° ENE 18:23:40 10° N
Cosmos 372 Rocket 4.0 18:15:22 10° S 18:20:28 59° ESE 18:23:18 26° NE
Abrixas rocket 3.0 18:17:54 10° W 18:20:59 39° NNW 18:21:25 36° N
BREEZE-M DEB (TANK) 3.9 18:18:53 10° NW 18:21:45 49° NNE 18:23:32 33° E
Cosmos 1980 Rocket 3.6 18:18:09 10° SSE 18:20:55 19° ESE 18:20:55 19° ESE
CZ-4 R/B 2.8 18:20:01 10° SSW 18:23:37 38° W 18:27:18 10° NNW
Cosmos 2297 Rocket 2.1 18:23:28 10° NNW 18:29:10 79° ENE 18:34:49 10° SSE
COSMO-SKYMED 1 2.6 18:27:10 14° N 18:30:52 78° WNW 18:35:12 10° SSW
NOSS 3-2 (A) 4.0 18:25:09 10° NNW 18:32:36 64° NE 18:40:02 13° SE
NOSS 3-2 (C) 4.1 18:30:50 10° NNW 18:38:10 55° NE 18:42:30 28° ESE
Meteor 2-4 Rocket 3.9 18:35:33 10° SSW 18:41:00 68° W 18:46:22 10° N
Okean 2 4.5 18:37:09 10° S 18:39:29 30° SSE 18:39:29 30° SSE
PSLV R/B 4.3 18:39:43 10° WSW 18:42:02 38° SSW 18:42:02 38° SSW
ATLAS 2AS CENTAUR R/B 3.6 18:37:30 10° SW 18:45:10 55° NW 18:51:14 18° NNE
DMSP B5D1-3 4.4 18:43:43 27° NNE 18:46:37 84° ESE 18:51:44 10° SSW
SJ 16-02 1.4 18:42:22 10° SSW 18:46:45 75° WNW 18:48:01 45° N
Meteor 1-15 Rocket 4.2 18:43:49 10° N 18:49:48 85° E 18:55:42 10° S
Cosmos 1656 3.6 18:45:33 10° SSW 18:51:09 87° WNW 18:53:15 40° NNE
SPOT 3 Rocket 3.8 18:46:17 10° S 18:51:26 67° WSW 18:56:36 10° NNW
ATLAS 3B R/B 2.9 18:45:54 10° NW 18:52:28 64° WSW 18:58:51 10° SSE
Meteor 2-11 Rocket 4.3 18:51:16 10° S 18:57:24 78° E 19:00:57 27° NNE
Cosmos 1241 Rocket 4.4 18:51:46 10° SSW 18:58:04 65° ESE 18:59:03 57° ENE
Hubble Space Telescope 3.5 18:57:23 10° SSW 18:58:20 11° S 18:59:11 10° S
Cosmos 2369 3.9 18:53:17 10° SSW 18:58:55 67° WNW 19:01:30 33° N
Cosmos 2278 3.9 18:55:04 10° SSW 19:00:42 68° WNW 19:03:06 35° N
Nadezhda 2 Rocket 4.4 18:54:50 10° N 19:01:10 89° E 19:07:34 10° S
Thor Agena Rocket 4.2 19:06:52 42° SSE 19:06:52 42° SSE 19:10:26 10° S
NOSS 3-4 (A) 3.3 18:59:56 10° SSW 19:06:04 67° ESE 19:06:29 65° E
NOSS 3-4 (C) 3.3 19:00:03 10° SSW 19:06:10 66° ESE 19:06:32 65° E
Gbstr 26 Del rocket 4.2 19:01:28 10° SW 19:09:25 75° SE 19:10:44 61° E
Cosmos 1025 Rocket 4.1 19:11:08 10° SSW 19:14:00 40° SSW 19:14:00 40° SSW
Cosmos 1697 Rocket 2.8 19:20:30 10° SSW 19:26:08 69° WNW 19:26:11 69° WNW
FengYun 1-2 T 4.5 19:20:41 10° S 19:26:14 68° WSW 19:31:53 10° NNW
CENTAUR R/B 3.3 19:28:22 10° NNW 19:34:48 51° NNE 19:34:48 51° NNE
Cosmos 1980 Rocket 3.9 20:00:11 10° SW 20:02:44 27° SW 20:02:44 27° SW
